Weather in Oktábr

Kazakhstan     52°06′37″N   65°40′30″E
temp.,
°C
wind,
m/s
gust,
m/s
humid.,
%
clouds,
%
prec.,
mm/h
press.,
hPa
HPBL,
m
11 april, sun
sun1123:00+1ene489764 0.0 1038215
02:00−2ene36935 0.0 103890
05:00−2e37895 0.0 1039100
08:000e39865 0.0 1039193
11:00+3e48943 0.0 1039246
14:00+6e47750 0.0 1038311
17:00+6e46770 0.0 1038225
20:00+2ese44860 0.0 103849
12 april, mon
mon1223:00+1ese45855 0.0 103871
02:000ese33853 0.0 103821
05:000ese33795 0.0 103826
08:00+2e34737 0.0 1038121
11:00+8e34555 0.0 1037288
14:00+11ne444923 0.0 1036473
17:00+10ne455490 0.0 1035357
20:00+6ne4679100 0.0 103671
13 april, tue
tue1323:00+4ne467464 0.0 103684
02:00+3ne467115 0.0 103676
05:00+2ne46735 0.0 103772
08:00+5ene48766 0.0 1038201
11:00+11e566955 0.0 1037577
14:00+13ene556797 0.0 1036998
17:00+12e6773100 0.0 1035917
20:00+9e4779100 0.0 1035163
14 april, wed
wed1423:00+8e498090 0.0 1035212
02:00+5e48855 0.0 1034143
05:00+4e47852 0.0 1033120
08:00+6e58700 0.0 1033243
11:00+11e57440 0.0 1031604
14:00+15e56310 0.0 1028862
17:00+15e56300 0.0 1026939
20:00+11ene46530 0.0 102684
15 april, thu
thu1523:00+8e45640 0.0 102562
02:00+7e33670 0.0 102331
05:00+5ene44690 0.0 102248
08:00+8ene47600 0.0 1022172
11:00+14e56380 0.0 1020510
14:00+17ene55300 0.0 1018904
17:00+18ene55290 0.0 10161084
20:00+13ene45490 0.0 101646